| time (UTC) | temp F | wind direction | speed MPH | gust MPH | rain 1hr in | rain 24hr in | rain mn in | humidity % | barometer mb |
| 20260905124532 | 64 | 5 | 0.0 | 0.0 | 0.00 | 0.00 | 0.00 | 86 | 1012.2 |
| 20260905123017 | 63 | 5 | 0.0 | 0.0 | 0.00 | 0.00 | 0.00 | 87 | 1012.1 |
| 20260905121536 | 62 | 360 | 0.0 | 0.0 | 0.00 | 0.00 | 0.00 | 87 | 1012.1 |
| 20260905120003 | 62 | 5 | 0.0 | 0.0 | 0.00 | 0.00 | 0.00 | 89 | 1012.1 |
| 20260905114505 | 61 | 360 | 0.0 | 0.0 | 0.00 | 0.00 | 0.00 | 89 | 1011.8 |
| 20260905113014 | 61 | 342 | 0.0 | 0.0 | 0.00 | 0.00 | 0.00 | 90 | 1011.7 |
| 20260905111548 | 61 | 342 | 0.0 | 0.0 | 0.00 | 0.00 | 0.00 | 90 | 1011.6 |
| 20260905110027 | 60 | 341 | 0.0 | 0.0 | 0.00 | 0.00 | 0.00 | 90 | 1011.6 |
| 20260905104505 | 60 | 342 | 0.0 | 0.0 | 0.00 | 0.00 | 0.00 | 90 | 1011.3 |
| 20260905103013 | 60 | 341 | 0.0 | 0.0 | 0.00 | 0.00 | 0.00 | 90 | 1011.1 |
| 20260905101517 | 60 | 342 | 0.0 | 0.0 | 0.00 | 0.00 | 0.00 | 89 | 1011.0 |
| 20260905100024 | 61 | 342 | 0.0 | 0.0 | 0.00 | 0.00 | 0.00 | 88 | 1011.0 |
| 20260905094526 | 61 | 342 | 0.0 | 0.0 | 0.00 | 0.00 | 0.00 | 88 | 1011.0 |
| 20260905093006 | 61 | 342 | 0.0 | 0.0 | 0.00 | 0.00 | 0.00 | 88 | 1010.9 |
| 20260905091512 | 61 | 342 | 0.0 | 0.0 | 0.00 | 0.00 | 0.00 | 88 | 1010.9 |
| 20260905090019 | 61 | 342 | 0.0 | 0.0 | 0.00 | 0.00 | 0.00 | 89 | 1011.0 |
| 20260905084530 | 61 | 342 | 0.0 | 0.0 | 0.00 | 0.00 | 0.00 | 88 | 1011.1 |
| 20260905083029 | 61 | 342 | 0.0 | 0.0 | 0.00 | 0.01 | 0.00 | 87 | 1011.0 |
| 20260905081533 | 62 | 341 | 0.0 | 0.0 | 0.00 | 0.04 | 0.00 | 86 | 1011.0 |
| 20260905080015 | 62 | 342 | 0.0 | 0.0 | 0.00 | 0.08 | 0.00 | 85 | 1011.1 |
| 20260905074521 | 63 | 342 | 0.0 | 0.0 | 0.00 | 0.11 | 0.00 | 84 | 1011.0 |
| 20260905073029 | 63 | 342 | 0.0 | 0.0 | 0.00 | 0.11 | 0.00 | 83 | 1011.0 |
| 20260905071539 | 63 | 342 | 0.0 | 0.0 | 0.00 | 0.11 | 0.00 | 83 | 1011.0 |
| 20260905070033 | 63 | 342 | 0.0 | 0.0 | 0.00 | 0.11 | 0.00 | 82 | 1011.1 |
| 20260905064514 | 64 | 341 | 0.0 | 0.0 | 0.00 | 0.11 | 0.00 | 82 | 1011.3 |
| 20260905063026 | 65 | 342 | 0.0 | 0.0 | 0.00 | 0.11 | 0.00 | 79 | 1011.3 |
| 20260905061531 | 65 | 342 | 0.0 | 0.0 | 0.00 | 0.11 | 0.00 | 79 | 1011.4 |
| 20260905060036 | 65 | 337 | 0.0 | 0.0 | 0.00 | 0.11 | 0.00 | 80 | 1011.6 |
| 20260905054542 | 65 | 337 | 0.0 | 0.0 | 0.00 | 0.11 | 0.00 | 80 | 1012.0 |
| 20260905053016 | 65 | 337 | 0.0 | 0.0 | 0.00 | 0.11 | 0.00 | 80 | 1011.9 |
| 20260905051526 | 65 | 337 | 0.0 | 0.0 | 0.00 | 0.11 | 0.00 | 79 | 1012.0 |
| 20260905050031 | 66 | 337 | 0.0 | 0.0 | 0.00 | 0.11 | 0.00 | 79 | 1012.1 |
| 20260905044535 | 66 | 336 | 0.0 | 0.0 | 0.00 | 0.11 | 0.00 | 79 | 1012.2 |
| 20260905043037 | 66 | 336 | 0.0 | 0.0 | 0.00 | 0.11 | 0.00 | 78 | 1012.1 |
| 20260905041522 | 66 | 28 | 0.0 | 0.0 | 0.00 | 0.11 | 0.00 | 78 | 1012.2 |
| 20260905040025 | 67 | 28 | 0.0 | 0.0 | 0.00 | 0.11 | 0.00 | 76 | 1012.1 |
| 20260905034533 | 67 | 28 | 0.0 | 0.0 | 0.00 | 0.11 | 0.11 | 75 | 1012.0 |
| 20260905033047 | 67 | 34 | 0.0 | 0.0 | 0.00 | 0.11 | 0.11 | 76 | 1011.9 |
| 20260905031537 | 67 | 32 | 0.0 | 0.0 | 0.00 | 0.11 | 0.11 | 77 | 1011.9 |
| 20260905030024 | 67 | 22 | 0.0 | 0.0 | 0.00 | 0.11 | 0.11 | 77 | 1012.0 |
| 20260905024527 | 68 | 16 | 0.0 | 0.0 | 0.00 | 0.11 | 0.11 | 76 | 1012.0 |
| 20260905023031 | 69 | 32 | 0.0 | 0.0 | 0.00 | 0.11 | 0.11 | 75 | 1012.1 |
| 20260905021514 | 69 | 32 | 0.0 | 0.0 | 0.00 | 0.11 | 0.11 | 75 | 1011.9 |
| 20260905020027 | 69 | 360 | 0.0 | 0.0 | 0.00 | 0.11 | 0.11 | 76 | 1012.0 |
| 20260905014523 | 69 | 352 | 0.0 | 0.0 | 0.00 | 0.11 | 0.11 | 75 | 1012.3 |
| 20260905013027 | 70 | 350 | 0.0 | 0.0 | 0.00 | 0.11 | 0.11 | 74 | 1012.4 |
| 20260905011505 | 71 | 349 | 0.0 | 0.0 | 0.00 | 0.11 | 0.11 | 74 | 1012.2 |
| 20260905010014 | 71 | 349 | 0.0 | 0.0 | 0.00 | 0.11 | 0.11 | 73 | 1012.5 |
| 20260905004527 | 71 | 349 | 0.0 | 0.0 | 0.00 | 0.11 | 0.11 | 73 | 1012.5 |
| 20260905003028 | 71 | 346 | 0.0 | 0.0 | 0.00 | 0.11 | 0.11 | 74 | 1012.3 |
| 20260905001532 | 71 | 345 | 0.0 | 0.0 | 0.00 | 0.11 | 0.11 | 75 | 1012.3 |
| 20260905000010 | 70 | 345 | 0.0 | 0.0 | 0.00 | 0.11 | 0.11 | 77 | 1012.0 |
| 20260904234516 | 70 | 345 | 0.0 | 0.0 | 0.00 | 0.11 | 0.11 | 78 | 1011.7 |
| 20260904233023 | 71 | 345 | 0.0 | 0.0 | 0.00 | 0.11 | 0.11 | 77 | 1011.7 |
| 20260904231534 | 72 | 345 | 0.0 | 0.0 | 0.00 | 0.11 | 0.11 | 76 | 1011.7 |
| 20260904230033 | 74 | 345 | 0.0 | 0.0 | 0.00 | 0.11 | 0.11 | 72 | 1011.8 |
| 20260904224510 | 76 | 345 | 0.0 | 0.0 | 0.00 | 0.11 | 0.11 | 67 | 1011.9 |
| 20260904223020 | 76 | 32 | 0.0 | 0.0 | 0.00 | 0.11 | 0.11 | 63 | 1011.8 |
| 20260904221524 | 77 | 32 | 0.0 | 0.0 | 0.00 | 0.11 | 0.11 | 61 | 1011.7 |
| 20260904220031 | 77 | 61 | 0.0 | 1.0 | 0.00 | 0.11 | 0.11 | 59 | 1011.7 |
| 20260904214541 | 78 | 47 | 0.0 | 6.0 | 0.00 | 0.11 | 0.11 | 58 | 1011.7 |
| 20260904213016 | 78 | 34 | 3.0 | 10.0 | 0.00 | 0.11 | 0.11 | 56 | 1011.7 |
| 20260904211521 | 78 | 57 | 0.0 | 9.0 | 0.00 | 0.11 | 0.11 | 58 | 1011.7 |
| 20260904210030 | 78 | 27 | 0.0 | 9.0 | 0.00 | 0.11 | 0.11 | 59 | 1011.8 |
| 20260904204529 | 78 | 61 | 0.0 | 15.0 | 0.00 | 0.11 | 0.11 | 58 | 1011.8 |
| 20260904203031 | 79 | 319 | 6.0 | 15.0 | 0.00 | 0.11 | 0.11 | 56 | 1011.9 |
| 20260904201514 | 79 | 25 | 2.0 | 15.0 | 0.00 | 0.11 | 0.11 | 58 | 1011.8 |
| 20260904200020 | 78 | 351 | 0.0 | 9.0 | 0.00 | 0.11 | 0.11 | 60 | 1011.9 |
| 20260904194526 | 79 | 60 | 6.0 | 13.0 | 0.00 | 0.11 | 0.11 | 58 | 1012.0 |
| 20260904193007 | 79 | 61 | 2.0 | 12.0 | 0.00 | 0.11 | 0.11 | 58 | 1011.9 |
| 20260904191511 | 78 | 42 | 4.0 | 13.0 | 0.00 | 0.11 | 0.11 | 60 | 1012.0 |
| 20260904190023 | 79 | 53 | 6.0 | 11.0 | 0.00 | 0.11 | 0.11 | 59 | 1012.2 |
| 20260904184524 | 78 | 42 | 7.0 | 12.0 | 0.00 | 0.11 | 0.11 | 61 | 1012.2 |
| 20260904183031 | 79 | 360 | 6.0 | 17.0 | 0.00 | 0.11 | 0.11 | 60 | 1012.3 |
| 20260904181507 | 80 | 53 | 4.0 | 14.0 | 0.00 | 0.11 | 0.11 | 59 | 1012.1 |
| 20260904180011 | 79 | 263 | 2.0 | 10.0 | 0.00 | 0.11 | 0.11 | 60 | 1012.3 |
| 20260904174526 | 78 | 46 | 5.0 | 11.0 | 0.00 | 0.11 | 0.11 | 60 | 1012.5 |
| 20260904173023 | 78 | 44 | 2.0 | 8.0 | 0.00 | 0.11 | 0.11 | 59 | 1012.2 |
| 20260904171534 | 79 | 42 | 4.0 | 10.0 | 0.00 | 0.11 | 0.11 | 61 | 1012.2 |
| 20260904170008 | 78 | 26 | 1.0 | 15.0 | 0.00 | 0.11 | 0.11 | 62 | 1012.4 |
| 20260904164512 | 78 | 311 | 0.0 | 11.0 | 0.00 | 0.11 | 0.11 | 66 | 1012.5 |
| 20260904163028 | 77 | 45 | 3.0 | 15.0 | 0.00 | 0.11 | 0.11 | 64 | 1012.5 |
| 20260904161528 | 78 | 39 | 3.0 | 13.0 | 0.00 | 0.11 | 0.11 | 62 | 1012.3 |
| 20260904160033 | 77 | 21 | 9.0 | 14.0 | 0.00 | 0.11 | 0.11 | 64 | 1012.8 |
| 20260904154535 | 77 | 40 | 6.0 | 11.0 | 0.00 | 0.12 | 0.11 | 65 | 1013.0 |
| 20260904153020 | 77 | 25 | 3.0 | 13.0 | 0.00 | 0.12 | 0.11 | 67 | 1013.0 |
| 20260904151522 | 76 | 302 | 6.0 | 12.0 | 0.00 | 0.12 | 0.11 | 67 | 1013.1 |
| 20260904150046 | 76 | 340 | 2.0 | 13.0 | 0.00 | 0.12 | 0.11 | 72 | 1013.1 |
| 20260904144531 | 74 | 61 | 6.0 | 12.0 | 0.00 | 0.12 | 0.11 | 71 | 1013.2 |
| 20260904143033 | 74 | 57 | 4.0 | 13.0 | 0.00 | 0.12 | 0.11 | 76 | 1013.2 |
| 20260904141520 | 73 | 42 | 3.0 | 13.0 | 0.00 | 0.12 | 0.11 | 78 | 1013.2 |
| 20260904140034 | 72 | 360 | 4.0 | 11.0 | 0.00 | 0.12 | 0.11 | 81 | 1013.0 |
| 20260904134542 | 73 | 22 | 0.0 | 0.0 | 0.00 | 0.12 | 0.11 | 85 | 1012.9 |
| 20260904133036 | 72 | 44 | 0.0 | 0.0 | 0.00 | 0.12 | 0.11 | 84 | 1013.1 |
| 20260904131534 | 71 | 46 | 0.0 | 0.0 | 0.00 | 0.12 | 0.11 | 87 | 1012.9 |
| 20260904130032 | 70 | 33 | 0.0 | 0.0 | 0.00 | 0.12 | 0.11 | 93 | 1013.0 |